This is the latest recevied weather packets stored in our database for station/object N4DWK. If no packets are shown the sender has not sent any weather packets the latest 10 day(s).
| Time | Temp. | Humidity | Pressure | Rain* | Wind** | Luminosity | Snow |
|---|---|---|---|---|---|---|---|
| 1788477905 | 31.67° C | 74% | 1013.7 hPa | 0 mm | - | 5 W/m² | - |
| 1788477605 | 31.67° C | 74% | 1013.7 hPa | 0 mm | - | 7 W/m² | - |
| 1788477305 | 31.67° C | 74% | 1013.7 hPa | 0 mm | - | 7 W/m² | - |
| 1788477005 | 31.67° C | 73% | 1013.6 hPa | 0 mm | - | 9 W/m² | - |
| 1788476704 | 31.67° C | 74% | 1013.5 hPa | 0 mm | - | 12 W/m² | - |
| 1788476405 | 31.67° C | 73% | 1013.4 hPa | 0 mm | - | 18 W/m² | - |
| 1788476105 | 31.67° C | 72% | 1013.5 hPa | 0 mm | - | 21 W/m² | - |
| 1788475804 | 32.22° C | 72% | 1013.5 hPa | 0 mm | - | 23 W/m² | - |
| 1788475505 | 32.22° C | 72% | 1013.5 hPa | 0 mm | - | 26 W/m² | - |
| 1788475205 | 32.22° C | 71% | 1013.4 hPa | 0 mm | - | 23 W/m² | - |
| 1788474904 | 32.78° C | 70% | 1013.5 hPa | 0 mm | - | 21 W/m² | - |
| 1788474605 | 32.78° C | 69% | 1013.5 hPa | 0 mm | - | 21 W/m² | - |
| 1788474305 | 32.78° C | 68% | 1013.5 hPa | 0 mm | - | 25 W/m² | - |
| 1788474005 | 33.33° C | 67% | 1013.4 hPa | 0 mm | - | 26 W/m² | - |
| 1788473704 | 33.33° C | 65% | 1013.5 hPa | 0 mm | - | 25 W/m² | - |
| 1788473426 | 33.89° C | 65% | 1013.5 hPa | 0 mm | - | 25 W/m² | - |
| 1788473104 | 34.44° C | 64% | 1013.6 hPa | 0 mm | - | 25 W/m² | - |
| 1788472805 | 34.44° C | 62% | 1013.7 hPa | 0 mm | - | 25 W/m² | - |
| 1788472504 | 35° C | 61% | 1013.8 hPa | 0 mm | - | 23 W/m² | - |
| 1788472205 | 35° C | 59% | 1013.7 hPa | 0 mm | - | 25 W/m² | - |
| 1788471904 | 35° C | 58% | 1013.7 hPa | 0 mm | - | 28 W/m² | - |
| 1788471605 | 35.56° C | 59% | 1013.8 hPa | 0 mm | - | 35 W/m² | - |
| 1788471305 | 35.56° C | 57% | 1013.6 hPa | 0 mm | - | 37 W/m² | - |
| 1788471004 | 36.11° C | 57% | 1013.6 hPa | 0 mm | - | 47 W/m² | - |
| 1788470704 | 36.11° C | 57% | 1013.6 hPa | 0 mm | - | 42 W/m² | - |
* Rain latest hour (hover to see other rain measurements)
** Current wind speed in m/s (hover to see current wind gust speed)